Location: Dumbr?vi?a
(45.8833°N, 22.7000°E)
Time: 16:23:16
(UTC+00:00)

FALCON 9 DEB - Pass Details

Date: 03 March 2021
Orbit: 424 x 435 km, 53.0° (Epoch: 10 April)

Event Time Altitude Azimuth Distance (km) Brightness Sun altitude
Rises 18:23:14 0° 299° (WNW) 2,401 8.2 -22.3°
Reaches altitude 10° 18:25:23 10° 294° (WNW) 1,528 7.0 -22.7°
Enters shadow 18:28:12 46° 253° (WSW) 586 4.0 -23.2°
